Home   Weather   Sierra Vista   Past weeks

Flag for USA Past Weather in Sierra Vista, Arizona, USA — Yesterday and Last 2 Weeks

Now
37 °F

Clear.


Feels Like: 33 °F
Forecast: 36 / 64 °F
Wind: 5 mph from Southwest

Location: Fort Huachuca

Current Time: Dec 5, 2016 at 1:49:00 am

Latest Report: Dec 5, 2016 at 12:58 am


Visibility: 10 mi

Pressure: 29.96 "Hg (25.22 "Hg at 1390m altitude)

Humidity: 53%

Dew Point: 21 °F

Location of Sierra VistaLocation

Past Weather in Sierra Vista — Graph

°F

Sierra Vista Temperature Yesterday

Maximum temperature yesterday: 60 °F (at 1:58 pm)
Minimum temperature yesterday: 35 °F (at 4:58 am)
Average temperature yesterday: 45 °F

High & Low Weather Summary for the Past Weeks

 TemperatureHumidityPressure
High78 °F (Nov 20, 2:58 pm)100% (Nov 29, 6:03 am)30.24 "Hg (Nov 29, 6:03 am)
Low29 °F (Nov 30, 6:58 am)7% (Dec 1, 1:58 pm)29.72 "Hg (Nov 28, 3:58 pm)
Average49 °F44%29.96 "Hg
* Reported Nov 19 11:58 pm — Dec 4 11:58 pm, Sierra Vista, Weather by CustomWeather, © 2016

Note: Actual official high and low records may vary slightly from our data, if they occured in-between our weather recording intervals... More about our weather records

Advertising

Sierra Vista Weather History for the Previous 24 Hours

Scroll right to see more
 ConditionsComfort  
Time TempWeatherWind HumidityBarometerVisibility
11:58 pm
Sun, Dec 4
39 °FClear.6 mph49%29.98 "Hg10 mi
10:58 pm38 °FClear.10 mph51%30.00 "Hg10 mi
9:58 pm43 °FClear.8 mph44%30.00 "Hg10 mi
8:58 pm41 °FClear.5 mph49%30.02 "Hg10 mi
7:58 pm44 °FClear.7 mph42%30.00 "Hg10 mi
6:58 pm45 °FClear.8 mph42%30.02 "Hg10 mi
5:58 pm47 °FClear.6 mph41%30.01 "Hg10 mi
4:58 pm55 °FSunny.3 mph29%29.98 "Hg9 mi
3:58 pm58 °FSunny.2 mph26%29.97 "Hg10 mi
2:58 pm59 °FSunny.5 mph25%29.95 "Hg10 mi
1:58 pm60 °FSunny.6 mph21%29.95 "Hg10 mi
12:58 pm59 °FSunny.5 mph23%29.97 "Hg10 mi
11:58 am57 °FSunny.8 mph32%29.99 "Hg10 mi
10:58 am53 °FSunny.8 mph39%30.02 "Hg10 mi
9:58 am50 °FSunny.8 mph50%30.03 "Hg10 mi
8:58 am44 °FSunny.2 mph63%30.05 "Hg10 mi
7:58 am38 °FSunny.3 mph71%30.04 "Hg10 mi
6:58 am35 °FClear.No wind76%30.04 "Hg10 mi
5:58 am36 °FClear.No wind77%30.00 "Hg10 mi
4:58 am35 °FClear.3 mph78%29.98 "Hg10 mi
3:58 am35 °FClear.2 mph81%29.99 "Hg10 mi
2:58 am38 °FClear.No wind76%29.98 "Hg10 mi
1:58 am38 °FClear.No wind82%29.98 "Hg10 mi
Weather by CustomWeather, © 2016

See weather overviewHow to use our weather pages